Flag for Ukraine Weather past 2 weeks in Luhansk, Ukraine

Now
50 °F

Fog.


Feels Like: 50 °F
Forecast: 36 / 44 °F
Wind: 1 mph from North

Location: Rostov-Na-Donu

Current Time: Oct 22, 2014 at 7:07:12 PM

Latest Report: Oct 22, 2014 at 6:30 PM


Visibility: 2 mi

Pressure: 29.86 "Hg

Humidity: 94%

Dew point: 48 °F

Location of LuhanskLocation

Historic Weather in Luhansk — Graph

°F

Luhansk temperature yesterday

Maximum temperature yesterday: 57 °F (at 3:00 PM)
Minimum temperature yesterday: 48 °F (at 12:00 AM)
Average temperature yesterday: 53 °F

Past Weeks' High & Low Weather Summary

 TemperatureHumidityPressure
High73 °F (Oct 15, 2:30 PM)100% (Oct 13, 8:30 AM)30.54 "Hg (Oct 13, 8:30 AM)
Low27 °F (Oct 20, 2:30 AM)35% (Oct 11, 1:30 PM)29.62 "Hg (Oct 17, 6:30 AM)
Average52 °F75%30.06 "Hg
* Reported Oct 7 5:00 PM — Oct 22 5:30 PM, Luhansk, Weather by CustomWeather, © 2014

Note: Actual official high and low records may vary slightly from our data, if they occured in-between our weather recording intervals... More about our weather records

Advertising

Luhansk weather history for previous 24 hours

 ConditionsComfort  
Time TempWeatherWind HumidityBarometerVisibility
5:30 PM
Oct 22
50 °FSunny.1 mph88%29.83 "Hg10 mi
5:00 PM54 °FSunny.3 mph82%29.83 "Hg10 mi
4:30 PM55 °FPartly sunny.6 mph82%29.83 "HgN/A
4:00 PM57 °FScattered clouds.13 mph77%29.83 "HgN/A
3:30 PM57 °FScattered clouds.13 mph77%29.83 "HgN/A
3:00 PM55 °FBroken clouds.10 mph82%29.83 "HgN/A
2:30 PM57 °FPartly sunny.10 mph77%29.83 "HgN/A
2:00 PM55 °FPartly sunny.10 mph82%29.83 "HgN/A
1:30 PM55 °FPartly sunny.10 mph82%29.83 "HgN/A
1:00 PM55 °FPartly sunny.8 mph82%29.83 "HgN/A
12:30 PM55 °FMore clouds than sun.10 mph82%29.83 "Hg5 mi
12:00 PM54 °FMore clouds than sun.10 mph88%29.83 "Hg4 mi
11:30 AM54 °FMostly cloudy.10 mph88%29.83 "Hg4 mi
11:00 AM54 °FMostly cloudy.10 mph88%29.83 "Hg4 mi
10:30 AM54 °FMostly cloudy.10 mph88%29.80 "Hg4 mi
10:00 AM52 °FFog.8 mph94%29.80 "Hg3 mi
9:30 AM52 °FFog.8 mph100%29.80 "Hg3 mi
9:00 AM52 °FFog.6 mph100%29.80 "Hg3 mi
8:30 AM52 °FFog.6 mph100%29.77 "Hg2 mi
8:00 AM52 °FFog.8 mph100%29.77 "Hg1 mi
7:30 AM52 °FFog.8 mph100%29.77 "Hg2 mi
7:00 AM52 °FFog.6 mph100%29.74 "Hg2 mi
6:30 AM52 °FFog.6 mph100%29.74 "Hg2 mi
6:00 AM52 °FSprinkles. Overcast.8 mph100%29.74 "Hg4 mi
5:30 AM52 °FSprinkles. Fog.8 mph100%29.74 "Hg2 mi
5:00 AM52 °FSprinkles. Overcast.6 mph94%29.71 "HgN/A
4:30 AM52 °FSprinkles. Mostly cloudy.8 mph94%29.71 "HgN/A
3:30 AM52 °FSprinkles. Overcast.6 mph100%29.71 "HgN/A
3:00 AM54 °FSprinkles. Overcast.8 mph94%29.71 "HgN/A
2:30 AM54 °FSprinkles. Overcast.10 mph94%29.71 "HgN/A
2:00 AM54 °FSprinkles. Mostly cloudy.10 mph94%29.71 "Hg4 mi
1:30 AM54 °FSprinkles. Fog.8 mph94%29.74 "Hg2 mi
1:00 AM54 °FSprinkles. Mostly cloudy.13 mph94%29.74 "Hg4 mi
12:30 AM54 °FSprinkles. Fog.10 mph94%29.74 "Hg3 mi
12:00 AM54 °FSprinkles. Mostly cloudy.13 mph94%29.74 "Hg4 mi
11:30 PM
Oct 21
54 °FSprinkles. Mostly cloudy.13 mph94%29.74 "Hg4 mi
11:00 PM54 °FSprinkles. Mostly cloudy.15 mph94%29.74 "Hg4 mi
10:30 PM54 °FSprinkles. Mostly cloudy.15 mph94%29.77 "Hg4 mi
10:00 PM54 °FSprinkles. Mostly cloudy.15 mph94%29.77 "HgN/A
9:30 PM54 °FSprinkles. Mostly cloudy.17 mph94%29.77 "HgN/A
9:00 PM55 °FSprinkles. Overcast.17 mph88%29.77 "HgN/A
8:30 PM55 °FLight rain. Passing clouds.15 mph82%29.77 "HgN/A
8:00 PM55 °FPassing clouds.15 mph82%29.77 "HgN/A
7:30 PM55 °FPassing clouds.15 mph82%29.77 "HgN/A
7:00 PM55 °FMostly cloudy.17 mph82%29.77 "HgN/A
Weather by CustomWeather, © 2014

See weather overviewHow to use our weather pages